| time (UTC) | temp F | wind direction | speed MPH | gust MPH | rain 1hr in | rain 24hr in | rain mn in | humidity % | barometer mb |
| 20260509061026 | 46 | 348 | 4.0 | 9.0 | 0.00 | 0.20 | 0.00 | 94 | 1011.0 |
| 20260509060042 | 46 | 5 | 4.0 | 7.0 | 0.00 | 0.20 | 0.00 | 94 | 1010.7 |
| 20260509055016 | 46 | 10 | 4.0 | 9.0 | 0.00 | 0.20 | 0.00 | 94 | 1010.5 |
| 20260509054131 | 45 | 32 | 3.0 | 7.0 | 0.00 | 0.20 | 0.00 | 94 | 1010.6 |
| 20260509053107 | 45 | 346 | 3.0 | 7.0 | 0.00 | 0.20 | 0.00 | 94 | 1010.6 |
| 20260509052121 | 45 | 11 | 4.0 | 8.0 | 0.00 | 0.20 | 0.00 | 93 | 1010.5 |
| 20260509051056 | 46 | 23 | 4.0 | 8.0 | 0.00 | 0.20 | 0.00 | 93 | 1010.5 |
| 20260509050050 | 46 | 49 | 2.0 | 7.0 | 0.00 | 0.20 | 0.00 | 93 | 1010.6 |
| 20260509045045 | 46 | 17 | 4.0 | 8.0 | 0.00 | 0.20 | 0.00 | 93 | 1010.6 |
| 20260509044102 | 47 | 32 | 3.0 | 7.0 | 0.00 | 0.20 | 0.00 | 93 | 1010.5 |
| 20260509043035 | 45 | 30 | 4.0 | 7.0 | 0.00 | 0.20 | 0.00 | 94 | 1010.5 |
| 20260509042051 | 45 | 14 | 3.0 | 8.0 | 0.00 | 0.20 | 0.00 | 95 | 1010.7 |
| 20260509041025 | 45 | 33 | 4.0 | 7.0 | 0.00 | 0.20 | 0.00 | 95 | 1010.8 |
| 20260509040020 | 45 | 43 | 6.0 | 11.0 | 0.00 | 0.20 | 0.00 | 95 | 1010.8 |
| 20260509035116 | 44 | 353 | 4.0 | 8.0 | 0.00 | 0.20 | 0.00 | 95 | 1010.7 |
| 20260509034110 | 44 | 34 | 6.0 | 9.0 | 0.00 | 0.20 | 0.00 | 95 | 1010.8 |
| 20260509033124 | 44 | 34 | 6.0 | 8.0 | 0.00 | 0.20 | 0.00 | 95 | 1011.2 |
| 20260509032100 | 44 | 29 | 3.0 | 7.0 | 0.00 | 0.20 | 0.00 | 95 | 1011.2 |
| 20260509031054 | 44 | 34 | 5.0 | 8.0 | 0.00 | 0.20 | 0.00 | 94 | 1011.1 |
| 20260509030049 | 44 | 37 | 4.0 | 7.0 | 0.00 | 0.20 | 0.00 | 93 | 1011.2 |
| 20260509025045 | 45 | 26 | 4.0 | 8.0 | 0.00 | 0.20 | 0.00 | 92 | 1011.3 |
| 20260509024040 | 46 | 41 | 5.0 | 7.0 | 0.00 | 0.20 | 0.00 | 91 | 1011.4 |
| 20260509023034 | 46 | 38 | 5.0 | 9.0 | 0.00 | 0.20 | 0.00 | 92 | 1011.5 |
| 20260509022029 | 46 | 31 | 5.0 | 8.0 | 0.00 | 0.20 | 0.00 | 92 | 1011.6 |
| 20260509021024 | 45 | 27 | 5.0 | 9.0 | 0.00 | 0.20 | 0.00 | 92 | 1011.7 |
| 20260509020019 | 46 | 30 | 3.0 | 7.0 | 0.00 | 0.20 | 0.00 | 91 | 1011.7 |
| 20260509015134 | 46 | 38 | 4.0 | 8.0 | 0.00 | 0.20 | 0.00 | 92 | 1012.0 |
| 20260509014109 | 46 | 18 | 3.0 | 6.0 | 0.00 | 0.20 | 0.00 | 92 | 1011.9 |
| 20260509013104 | 46 | 32 | 3.0 | 7.0 | 0.00 | 0.20 | 0.00 | 92 | 1012.0 |
| 20260509012059 | 46 | 354 | 3.0 | 7.0 | 0.00 | 0.20 | 0.00 | 91 | 1012.0 |
| 20260509011054 | 47 | 22 | 1.0 | 4.0 | 0.00 | 0.20 | 0.00 | 90 | 1012.0 |
| 20260509010049 | 47 | 39 | 4.0 | 8.0 | 0.00 | 0.20 | 0.00 | 90 | 1012.0 |
| 20260509005105 | 47 | 34 | 4.0 | 7.0 | 0.00 | 0.20 | 0.00 | 91 | 1012.1 |
| 20260509004039 | 46 | 31 | 3.0 | 4.0 | 0.00 | 0.20 | 0.00 | 92 | 1012.1 |
| 20260509003054 | 46 | 28 | 2.0 | 4.0 | 0.00 | 0.20 | 0.00 | 92 | 1012.3 |
| 20260509002029 | 47 | 45 | 3.0 | 4.0 | 0.00 | 0.20 | 0.00 | 92 | 1012.2 |
| 20260509001025 | 47 | 26 | 2.0 | 4.0 | 0.00 | 0.20 | 0.00 | 92 | 1012.3 |
| 20260509000039 | 47 | 13 | 2.0 | 4.0 | 0.00 | 0.20 | 0.00 | 92 | 1012.3 |
| 20260508235114 | 47 | 38 | 4.0 | 6.0 | 0.00 | 0.20 | 0.00 | 92 | 1012.3 |
| 20260508234130 | 48 | 40 | 4.0 | 6.0 | 0.00 | 0.20 | 0.00 | 92 | 1012.4 |
| 20260508233105 | 48 | 45 | 4.0 | 6.0 | 0.00 | 0.20 | 0.00 | 91 | 1012.4 |
| 20260508232059 | 48 | 42 | 4.0 | 6.0 | 0.00 | 0.20 | 0.00 | 91 | 1012.6 |
| 20260508231054 | 48 | 45 | 4.0 | 6.0 | 0.00 | 0.20 | 0.00 | 91 | 1012.5 |
| 20260508230049 | 49 | 45 | 5.0 | 7.0 | 0.00 | 0.20 | 0.00 | 91 | 1012.5 |
| 20260508225044 | 49 | 45 | 5.0 | 6.0 | 0.00 | 0.20 | 0.00 | 90 | 1012.6 |
| 20260508224039 | 49 | 38 | 4.0 | 6.0 | 0.00 | 0.20 | 0.00 | 90 | 1012.7 |
| 20260508223035 | 49 | 45 | 4.0 | 4.0 | 0.00 | 0.20 | 0.00 | 90 | 1012.8 |
| 20260508222029 | 49 | 45 | 4.0 | 6.0 | 0.00 | 0.20 | 0.00 | 90 | 1012.8 |
| 20260508221023 | 49 | 52 | 5.0 | 6.0 | 0.00 | 0.20 | 0.00 | 90 | 1012.9 |
| 20260508220019 | 49 | 45 | 5.0 | 8.0 | 0.00 | 0.20 | 0.00 | 90 | 1012.8 |
| 20260508215115 | 49 | 48 | 6.0 | 9.0 | 0.00 | 0.20 | 0.20 | 90 | 1012.8 |
| 20260508214109 | 49 | 45 | 7.0 | 9.0 | 0.00 | 0.20 | 0.20 | 91 | 1012.9 |
| 20260508213124 | 49 | 37 | 4.0 | 6.0 | 0.00 | 0.20 | 0.20 | 90 | 1013.0 |
| 20260508212121 | 49 | 45 | 4.0 | 6.0 | 0.00 | 0.20 | 0.20 | 90 | 1013.0 |
| 20260508211114 | 49 | 45 | 4.0 | 4.0 | 0.00 | 0.20 | 0.20 | 90 | 1013.0 |
| 20260508210049 | 49 | 45 | 5.0 | 8.0 | 0.00 | 0.20 | 0.20 | 90 | 1013.1 |
| 20260508205044 | 49 | 42 | 5.0 | 7.0 | 0.00 | 0.20 | 0.20 | 90 | 1012.9 |
| 20260508204041 | 49 | 35 | 3.0 | 6.0 | 0.00 | 0.20 | 0.20 | 89 | 1013.1 |
| 20260508203035 | 49 | 35 | 1.0 | 2.0 | 0.00 | 0.20 | 0.20 | 89 | 1013.1 |
| 20260508202030 | 49 | 12 | 2.0 | 4.0 | 0.00 | 0.20 | 0.20 | 88 | 1012.8 |
| 20260508201024 | 49 | 327 | 1.0 | 2.0 | 0.00 | 0.20 | 0.20 | 88 | 1012.9 |
| 20260508200020 | 49 | 0 | 2.0 | 4.0 | 0.00 | 0.20 | 0.20 | 89 | 1012.6 |
| 20260508195115 | 49 | 45 | 3.0 | 6.0 | 0.00 | 0.20 | 0.20 | 88 | 1012.3 |
| 20260508194109 | 49 | 3 | 2.0 | 4.0 | 0.00 | 0.20 | 0.20 | 87 | 1012.2 |
| 20260508193124 | 49 | 42 | 3.0 | 4.0 | 0.00 | 0.20 | 0.20 | 88 | 1012.3 |
| 20260508192059 | 50 | 42 | 2.0 | 4.0 | 0.00 | 0.20 | 0.20 | 87 | 1012.0 |
| 20260508191054 | 50 | 347 | 2.0 | 4.0 | 0.00 | 0.20 | 0.20 | 85 | 1011.9 |
| 20260508190050 | 50 | 42 | 2.0 | 4.0 | 0.00 | 0.20 | 0.20 | 86 | 1012.0 |
| 20260508185043 | 50 | 10 | 2.0 | 6.0 | 0.00 | 0.20 | 0.20 | 86 | 1011.8 |
| 20260508184100 | 50 | 319 | 1.0 | 2.0 | 0.00 | 0.20 | 0.20 | 87 | 1011.9 |
| 20260508183033 | 50 | 68 | 4.0 | 7.0 | 0.00 | 0.20 | 0.20 | 87 | 1011.6 |
| 20260508182028 | 49 | 77 | 6.0 | 8.0 | 0.00 | 0.20 | 0.20 | 86 | 1011.6 |
| 20260508181024 | 49 | 45 | 3.0 | 6.0 | 0.00 | 0.20 | 0.20 | 88 | 1011.7 |
| 20260508180018 | 49 | 35 | 1.0 | 4.0 | 0.05 | 0.20 | 0.20 | 88 | 1011.7 |
| 20260508175114 | 49 | 45 | 4.0 | 6.0 | 0.06 | 0.20 | 0.20 | 87 | 1011.6 |
| 20260508174109 | 49 | 45 | 2.0 | 4.0 | 0.06 | 0.20 | 0.20 | 85 | 1011.6 |
| 20260508173104 | 49 | 327 | 1.0 | 2.0 | 0.06 | 0.20 | 0.20 | 85 | 1011.8 |
| 20260508172118 | 49 | 263 | 2.0 | 4.0 | 0.06 | 0.20 | 0.20 | 85 | 1012.1 |
| 20260508171053 | 49 | 251 | 4.0 | 7.0 | 0.06 | 0.20 | 0.20 | 84 | 1011.8 |
| 20260508170048 | 50 | 287 | 2.0 | 6.0 | 0.01 | 0.15 | 0.15 | 81 | 1011.8 |
| 20260508165043 | 51 | 336 | 5.0 | 13.0 | 0.07 | 0.14 | 0.14 | 79 | 1011.3 |
| 20260508164058 | 52 | 325 | 3.0 | 7.0 | 0.07 | 0.14 | 0.14 | 78 | 1010.9 |
| 20260508163033 | 51 | 346 | 2.0 | 7.0 | 0.07 | 0.14 | 0.14 | 80 | 1010.9 |
| 20260508162028 | 50 | 215 | 1.0 | 2.0 | 0.07 | 0.14 | 0.14 | 79 | 1011.4 |
| 20260508161023 | 49 | 261 | 4.0 | 7.0 | 0.07 | 0.14 | 0.14 | 80 | 1011.3 |
| 20260508160018 | 50 | 269 | 6.0 | 13.0 | 0.07 | 0.14 | 0.14 | 76 | 1011.2 |
| 20260508155113 | 51 | 248 | 2.0 | 7.0 | 0.00 | 0.07 | 0.07 | 68 | 1011.3 |
| 20260508154108 | 55 | 245 | 9.0 | 18.0 | 0.00 | 0.07 | 0.07 | 64 | 1011.4 |
| 20260508153103 | 57 | 172 | 7.0 | 11.0 | 0.00 | 0.07 | 0.07 | 66 | 1011.0 |
| 20260508152058 | 57 | 174 | 7.0 | 14.0 | 0.00 | 0.07 | 0.07 | 67 | 1010.8 |
| 20260508151053 | 57 | 133 | 10.0 | 14.0 | 0.00 | 0.07 | 0.07 | 67 | 1011.0 |
| 20260508150048 | 57 | 139 | 6.0 | 11.0 | 0.00 | 0.09 | 0.07 | 67 | 1010.9 |
| 20260508145043 | 57 | 181 | 8.0 | 11.0 | 0.00 | 0.12 | 0.07 | 66 | 1011.1 |
| 20260508144038 | 56 | 174 | 8.0 | 15.0 | 0.00 | 0.20 | 0.07 | 69 | 1011.2 |
| 20260508143033 | 55 | 170 | 6.0 | 13.0 | 0.00 | 0.22 | 0.07 | 73 | 1011.6 |
| 20260508142029 | 55 | 141 | 6.0 | 13.0 | 0.00 | 0.22 | 0.07 | 74 | 1011.7 |
| 20260508141044 | 53 | 141 | 7.0 | 13.0 | 0.02 | 0.22 | 0.07 | 75 | 1011.8 |
| 20260508140020 | 51 | 114 | 3.0 | 11.0 | 0.05 | 0.22 | 0.07 | 84 | 1012.0 |
| 20260508135114 | 49 | 214 | 1.0 | 4.0 | 0.06 | 0.22 | 0.07 | 88 | 1012.2 |
| 20260508134108 | 48 | 173 | 3.0 | 4.0 | 0.06 | 0.22 | 0.07 | 89 | 1012.4 |
| 20260508133103 | 48 | 56 | 2.0 | 4.0 | 0.06 | 0.22 | 0.07 | 91 | 1012.3 |
| 20260508132058 | 47 | 211 | 2.0 | 4.0 | 0.07 | 0.22 | 0.07 | 90 | 1012.8 |
| 20260508131054 | 47 | 228 | 8.0 | 11.0 | 0.05 | 0.20 | 0.05 | 89 | 1013.0 |
| 20260508130049 | 48 | 209 | 9.0 | 14.0 | 0.02 | 0.18 | 0.02 | 86 | 1013.0 |
| 20260508125104 | 50 | 215 | 11.0 | 20.0 | 0.01 | 0.17 | 0.01 | 84 | 1013.0 |
| 20260508124038 | 51 | 217 | 11.0 | 18.0 | 0.01 | 0.17 | 0.01 | 81 | 1012.6 |
| 20260508123033 | 51 | 195 | 11.0 | 17.0 | 0.01 | 0.17 | 0.01 | 84 | 1012.3 |
| 20260508122028 | 52 | 203 | 9.0 | 13.0 | 0.00 | 0.15 | 0.00 | 79 | 1012.3 |
| 20260508121023 | 54 | 204 | 8.0 | 14.0 | 0.00 | 0.15 | 0.00 | 74 | 1012.3 |
| 20260508120018 | 54 | 225 | 8.0 | 11.0 | 0.00 | 0.15 | 0.00 | 73 | 1012.3 |
| 20260508115133 | 54 | 191 | 10.0 | 14.0 | 0.00 | 0.15 | 0.00 | 72 | 1012.4 |
| 20260508114108 | 55 | 215 | 9.0 | 14.0 | 0.00 | 0.15 | 0.00 | 70 | 1012.4 |
| 20260508113104 | 55 | 165 | 8.0 | 11.0 | 0.00 | 0.15 | 0.00 | 70 | 1012.6 |
| 20260508112058 | 55 | 164 | 8.0 | 11.0 | 0.00 | 0.15 | 0.00 | 70 | 1012.5 |
| 20260508111053 | 54 | 195 | 10.0 | 15.0 | 0.00 | 0.15 | 0.00 | 69 | 1012.5 |
| 20260508110048 | 55 | 209 | 7.0 | 13.0 | 0.00 | 0.15 | 0.00 | 68 | 1012.4 |
| 20260508105103 | 55 | 148 | 4.0 | 8.0 | 0.00 | 0.15 | 0.00 | 69 | 1012.2 |
| 20260508104037 | 54 | 145 | 4.0 | 7.0 | 0.00 | 0.15 | 0.00 | 68 | 1012.0 |
| 20260508103052 | 54 | 102 | 4.0 | 8.0 | 0.00 | 0.15 | 0.00 | 69 | 1011.9 |
| 20260508102027 | 54 | 171 | 2.0 | 7.0 | 0.00 | 0.15 | 0.00 | 70 | 1012.2 |
| 20260508101023 | 54 | 160 | 5.0 | 11.0 | 0.00 | 0.15 | 0.00 | 70 | 1012.4 |
| 20260508100017 | 54 | 178 | 5.0 | 11.0 | 0.00 | 0.15 | 0.00 | 70 | 1012.4 |
| 20260508095112 | 53 | 182 | 7.0 | 14.0 | 0.00 | 0.15 | 0.00 | 72 | 1012.2 |
| 20260508094109 | 52 | 304 | 0.0 | 2.0 | 0.00 | 0.15 | 0.00 | 80 | 1012.2 |
| 20260508093103 | 52 | 0.0 | 2.0 | 0.00 | 0.15 | 0.00 | 80 | 1012.3 | |
| 20260508092059 | 51 | 0.0 | 0.0 | 0.00 | 0.15 | 0.00 | 82 | 1012.0 | |
| 20260508091053 | 51 | 338 | 0.0 | 2.0 | 0.00 | 0.15 | 0.00 | 82 | 1012.1 |
| 20260508090049 | 50 | 9 | 1.0 | 2.0 | 0.00 | 0.15 | 0.00 | 82 | 1012.0 |
| 20260508085043 | 49 | 21 | 2.0 | 4.0 | 0.00 | 0.15 | 0.00 | 83 | 1011.9 |
| 20260508084039 | 49 | 37 | 2.0 | 4.0 | 0.00 | 0.15 | 0.00 | 82 | 1012.0 |
| 20260508083033 | 49 | 19 | 2.0 | 4.0 | 0.00 | 0.15 | 0.00 | 82 | 1012.0 |
| 20260508082028 | 49 | 26 | 2.0 | 4.0 | 0.00 | 0.15 | 0.00 | 82 | 1012.1 |
| 20260508081023 | 49 | 27 | 2.0 | 4.0 | 0.00 | 0.15 | 0.00 | 82 | 1011.9 |
| 20260508080018 | 49 | 35 | 2.0 | 4.0 | 0.00 | 0.15 | 0.00 | 82 | 1012.1 |
| 20260508075114 | 48 | 17 | 1.0 | 4.0 | 0.00 | 0.15 | 0.00 | 84 | 1012.0 |
| 20260508074109 | 48 | 13 | 2.0 | 7.0 | 0.00 | 0.15 | 0.00 | 85 | 1011.9 |
| 20260508073103 | 47 | 34 | 3.0 | 6.0 | 0.00 | 0.15 | 0.00 | 86 | 1012.0 |
| 20260508072058 | 47 | 15 | 2.0 | 4.0 | 0.00 | 0.15 | 0.00 | 86 | 1012.1 |
| 20260508071114 | 46 | 9 | 4.0 | 9.0 | 0.00 | 0.15 | 0.00 | 86 | 1012.0 |
| 20260508070049 | 46 | 10 | 3.0 | 6.0 | 0.00 | 0.15 | 0.00 | 86 | 1012.2 |
| 20260508065044 | 45 | 15 | 2.0 | 6.0 | 0.00 | 0.15 | 0.00 | 87 | 1012.0 |
| 20260508064040 | 45 | 9 | 0.0 | 4.0 | 0.00 | 0.15 | 0.00 | 87 | 1012.1 |
| 20260508063055 | 44 | 0 | 1.0 | 4.0 | 0.00 | 0.15 | 0.00 | 87 | 1012.1 |
| 20260508062049 | 44 | 17 | 1.0 | 4.0 | 0.00 | 0.15 | 0.00 | 88 | 1012.0 |